{"data":{"norad_id":51061,"epoch":"2026-09-20T21:43:56.940096Z","epoch_age_seconds":78244,"freshness":"FRESH","line1":"1 51061U 22002CF  26263.90552014  .00019317  00000+0  33643-3 0  9996","line2":"2 51061  97.2909 338.6390 0005255 346.0860  14.0247 15.50784259261077","mean_motion":15.50784259,"eccentricity":0.0005255,"inclination_deg":97.2909,"raan_deg":338.639,"arg_perigee_deg":346.086,"mean_anomaly_deg":14.0247,"bstar":0.00033643,"rev_number":26107,"period_min":92.856243003689,"perigee_km":410.86552461546,"apogee_km":418.00451780976,"semimajor_km":6792.5720212126,"source":"CELESTRAK","updated_at":"2026-09-21T09:00:08.248108Z"}}